date,time,SUV Intensity [MED/Hr],UV Index,Daily total [MED],Since Last [MED]
10/08/2022,00:11:27,0.001,0.0,0.0,0.0
10/08/2022,00:12:28,-0.000,0.0,0.0,0.0
10/08/2022,00:13:27,0.000,0.0,0.0,0.0
10/08/2022,00:14:28,0.000,0.0,0.0,0.0
10/08/2022,00:15:27,0.000,0.0,0.0,0.0
10/08/2022,00:16:36,0.000,0.0,0.0,0.0
10/08/2022,00:17:27,0.000,0.0,0.0,0.0
10/08/2022,00:18:27,0.000,0.0,0.0,0.0
10/08/2022,00:19:36,0.000,0.0,0.0,0.0
10/08/2022,00:20:27,-0.000,0.0,0.0,0.0
10/08/2022,00:21:27,0.000,0.0,0.0,0.0
10/08/2022,00:22:28,0.001,0.0,0.0,0.0
10/08/2022,00:23:27,0.001,0.0,0.0,0.0
10/08/2022,00:24:28,0.001,0.0,0.0,0.0
10/08/2022,00:25:28,0.000,0.0,0.0,0.0
10/08/2022,00:26:27,0.000,0.0,0.0,0.0
10/08/2022,00:27:28,0.001,0.0,0.0,0.0
10/08/2022,00:28:28,0.001,0.0,0.0,0.0
10/08/2022,00:29:28,0.000,0.0,0.0,0.0
10/08/2022,00:30:27,0.000,0.0,0.0,0.0
10/08/2022,00:31:27,0.001,0.0,0.0,0.0
10/08/2022,00:32:28,-0.000,0.0,0.0,0.0
10/08/2022,00:33:27,0.000,0.0,0.0,0.0
10/08/2022,00:34:27,0.000,0.0,0.0,0.0
10/08/2022,00:35:28,0.000,0.0,0.0,0.0
10/08/2022,00:36:28,-0.000,0.0,0.0,0.0
10/08/2022,00:37:28,0.000,0.0,0.0,0.0
10/08/2022,00:38:27,0.000,0.0,0.0,0.0
10/08/2022,00:39:27,0.000,0.0,0.0,0.0
10/08/2022,00:40:28,0.000,0.0,0.0,0.0
10/08/2022,00:41:27,0.000,0.0,0.0,0.0
10/08/2022,00:42:30,0.000,0.0,0.0,0.0
10/08/2022,00:43:29,0.001,0.0,0.0,0.0
10/08/2022,00:44:28,0.001,0.0,0.0,0.0
10/08/2022,00:45:28,0.001,0.0,0.0,0.0
10/08/2022,00:46:28,0.001,0.0,0.0,0.0
10/08/2022,00:47:36,0.001,0.0,0.0,0.0
10/08/2022,00:48:27,0.001,0.0,0.0,0.0
10/08/2022,00:49:28,0.001,0.0,0.0,0.0
10/08/2022,00:50:36,0.001,0.0,0.0,0.0
10/08/2022,00:51:27,0.001,0.0,0.0,0.0
10/08/2022,00:52:27,0.001,0.0,0.0,0.0
10/08/2022,00:53:28,0.001,0.0,0.0,0.0
10/08/2022,00:54:27,0.001,0.0,0.0,0.0
10/08/2022,00:55:28,0.001,0.0,0.0,0.0
10/08/2022,00:56:27,0.001,0.0,0.0,0.0
10/08/2022,00:57:27,0.001,0.0,0.0,0.0
10/08/2022,00:58:36,0.001,0.0,0.0,0.0
10/08/2022,00:59:27,0.001,0.0,0.0,0.0
10/08/2022,01:00:28,0.001,0.0,0.0,0.0
10/08/2022,01:01:27,0.001,0.0,0.0,0.0
10/08/2022,01:02:27,0.001,0.0,0.0,0.0
10/08/2022,01:03:28,0.001,0.0,0.0,0.0
10/08/2022,01:04:27,0.001,0.0,0.0,0.0
10/08/2022,01:05:28,0.001,0.0,0.0,0.0
10/08/2022,01:06:27,0.001,0.0,0.0,0.0
10/08/2022,01:07:27,0.001,0.0,0.0,0.0
10/08/2022,01:08:28,0.001,0.0,0.0,0.0
10/08/2022,01:09:27,0.002,0.0,0.0,0.0
10/08/2022,01:10:27,0.001,0.0,0.0,0.0
10/08/2022,01:11:28,0.001,0.0,0.0,0.0
10/08/2022,01:12:28,0.001,0.0,0.0,0.0
10/08/2022,01:13:27,0.001,0.0,0.0,0.0
10/08/2022,01:14:28,0.001,0.0,0.0,0.0
10/08/2022,01:15:27,0.001,0.0,0.0,0.0
10/08/2022,01:16:27,0.001,0.0,0.0,0.0
10/08/2022,01:17:27,0.001,0.0,0.0,0.0
10/08/2022,01:18:27,0.001,0.0,0.0,0.0
10/08/2022,01:19:28,0.002,0.0,0.0,0.0
10/08/2022,01:20:28,0.001,0.0,0.0,0.0
10/08/2022,01:21:36,0.001,0.0,0.0,0.0
10/08/2022,01:22:26,0.001,0.0,0.0,0.0
10/08/2022,01:23:27,0.001,0.0,0.0,0.0
10/08/2022,01:24:35,0.001,0.0,0.0,0.0
10/08/2022,01:25:26,0.001,0.0,0.0,0.0
10/08/2022,01:26:28,0.001,0.0,0.0,0.0
10/08/2022,01:27:36,0.001,0.0,0.0,0.0
10/08/2022,01:28:27,0.002,0.0,0.0,0.0
10/08/2022,01:29:36,0.001,0.0,0.0,0.0
10/08/2022,01:30:27,0.001,0.0,0.0,0.0
10/08/2022,01:31:27,0.001,0.0,0.0,0.0
10/08/2022,01:32:36,0.001,0.0,0.0,0.0
10/08/2022,01:33:28,0.002,0.0,0.0,0.0
10/08/2022,01:34:27,0.001,0.0,0.0,0.0
10/08/2022,01:35:27,0.001,0.0,0.0,0.0
10/08/2022,01:36:27,0.001,0.0,0.0,0.0
10/08/2022,01:37:28,0.001,0.0,0.0,0.0
10/08/2022,01:38:27,0.002,0.0,0.0,0.0
10/08/2022,01:39:28,0.001,0.0,0.0,0.0
10/08/2022,01:40:27,0.001,0.0,0.0,0.0
10/08/2022,01:41:28,0.002,0.0,0.0,0.0
10/08/2022,01:42:27,0.001,0.0,0.0,0.0
10/08/2022,01:43:27,0.001,0.0,0.0,0.0
10/08/2022,01:44:28,0.001,0.0,0.0,0.0
10/08/2022,01:45:27,0.001,0.0,0.0,0.0
10/08/2022,01:46:27,0.001,0.0,0.0,0.0
10/08/2022,01:47:27,0.001,0.0,0.0,0.0
10/08/2022,01:48:28,0.001,0.0,0.0,0.0
10/08/2022,01:49:28,0.001,0.0,0.0,0.0
10/08/2022,01:50:27,0.001,0.0,0.0,0.0
10/08/2022,01:51:28,0.001,0.0,0.0,0.0
10/08/2022,01:52:27,0.001,0.0,0.0,0.0
10/08/2022,01:53:27,0.001,0.0,0.0,0.0
10/08/2022,01:54:28,0.001,0.0,0.0,0.0
10/08/2022,01:55:36,0.001,0.0,0.0,0.0
10/08/2022,01:56:28,0.001,0.0,0.0,0.0
10/08/2022,01:57:28,0.001,0.0,0.0,0.0
10/08/2022,01:58:36,0.001,0.0,0.0,0.0
10/08/2022,01:59:27,0.001,0.0,0.0,0.0
10/08/2022,02:00:36,0.001,0.0,0.0,0.0
10/08/2022,02:01:27,0.001,0.0,0.0,0.0
10/08/2022,02:02:28,0.001,0.0,0.0,0.0
10/08/2022,02:03:28,0.001,0.0,0.0,0.0
10/08/2022,02:04:27,0.002,0.0,0.0,0.0
10/08/2022,02:05:27,0.001,0.0,0.0,0.0
10/08/2022,02:06:27,0.002,0.0,0.0,0.0
10/08/2022,02:07:28,0.001,0.0,0.0,0.0
10/08/2022,02:08:27,0.001,0.0,0.0,0.0
10/08/2022,02:09:27,0.001,0.0,0.0,0.0
10/08/2022,02:10:28,0.001,0.0,0.0,0.0
10/08/2022,02:11:28,0.001,0.0,0.0,0.0
10/08/2022,02:12:28,0.001,0.0,0.0,0.0
10/08/2022,02:13:27,0.002,0.0,0.0,0.0
10/08/2022,02:14:28,0.002,0.0,0.0,0.0
10/08/2022,02:15:36,0.001,0.0,0.0,0.0
10/08/2022,02:16:27,0.002,0.0,0.0,0.0
10/08/2022,02:17:27,0.001,0.0,0.0,0.0
10/08/2022,02:18:36,0.001,0.0,0.0,0.0
10/08/2022,02:19:27,0.002,0.0,0.0,0.0
10/08/2022,02:20:36,0.001,0.0,0.0,0.0
10/08/2022,02:21:27,0.001,0.0,0.0,0.0
10/08/2022,02:22:27,0.001,0.0,0.0,0.0
10/08/2022,02:23:28,0.001,0.0,0.0,0.0
10/08/2022,02:24:27,0.001,0.0,0.0,0.0
10/08/2022,02:25:28,0.002,0.0,0.0,0.0
10/08/2022,02:26:36,0.001,0.0,0.0,0.0
10/08/2022,02:27:28,0.001,0.0,0.0,0.0
10/08/2022,02:28:28,0.001,0.0,0.0,0.0
10/08/2022,02:29:28,0.002,0.0,0.0,0.0
10/08/2022,02:30:27,0.001,0.0,0.0,0.0
10/08/2022,02:31:29,0.001,0.0,0.0,0.0
10/08/2022,02:32:27,0.002,0.0,0.0,0.0
10/08/2022,02:33:28,0.001,0.0,0.0,0.0
10/08/2022,02:34:28,0.002,0.0,0.0,0.0
10/08/2022,02:35:28,0.001,0.0,0.0,0.0
10/08/2022,02:36:28,0.001,0.0,0.0,0.0
10/08/2022,02:37:28,0.001,0.0,0.0,0.0
10/08/2022,02:38:27,0.001,0.0,0.0,0.0
10/08/2022,02:39:28,0.002,0.0,0.0,0.0
10/08/2022,02:40:27,0.001,0.0,0.0,0.0
10/08/2022,02:41:27,0.003,0.0,0.0,0.0
10/08/2022,02:42:28,0.001,0.0,0.0,0.0
10/08/2022,02:43:27,0.001,0.0,0.0,0.0
10/08/2022,02:44:27,0.001,0.0,0.0,0.0
10/08/2022,02:45:28,0.001,0.0,0.0,0.0
10/08/2022,02:46:36,0.002,0.0,0.0,0.0
10/08/2022,02:47:27,0.001,0.0,0.0,0.0
10/08/2022,02:48:28,0.001,0.0,0.0,0.0
10/08/2022,02:49:35,0.001,0.0,0.0,0.0
10/08/2022,02:50:27,0.001,0.0,0.0,0.0
10/08/2022,02:51:27,0.001,0.0,0.0,0.0
10/08/2022,02:52:36,0.001,0.0,0.0,0.0
10/08/2022,02:53:28,0.001,0.0,0.0,0.0
10/08/2022,02:54:36,0.002,0.0,0.0,0.0
10/08/2022,02:55:28,0.001,0.0,0.0,0.0
10/08/2022,02:56:27,0.002,0.0,0.0,0.0
10/08/2022,02:57:27,0.002,0.0,0.0,0.0
10/08/2022,02:58:27,0.002,0.0,0.0,0.0
10/08/2022,02:59:28,0.002,0.0,0.0,0.0
10/08/2022,03:00:28,0.002,0.0,0.0,0.0
10/08/2022,03:01:28,0.002,0.0,0.0,0.0
10/08/2022,03:02:28,0.001,0.0,0.0,0.0
10/08/2022,03:03:28,0.002,0.0,0.0,0.0
10/08/2022,03:04:27,0.001,0.0,0.0,0.0
10/08/2022,03:05:27,0.002,0.0,0.0,0.0
10/08/2022,03:06:28,0.002,0.0,0.0,0.0
10/08/2022,03:07:28,0.002,0.0,0.0,0.0
10/08/2022,03:08:28,0.001,0.0,0.0,0.0
10/08/2022,03:09:36,0.002,0.0,0.0,0.0
10/08/2022,03:10:27,0.002,0.0,0.0,0.0
10/08/2022,03:11:27,0.003,0.0,0.0,0.0
10/08/2022,03:12:36,0.002,0.0,0.0,0.0
10/08/2022,03:13:28,0.002,0.0,0.0,0.0
10/08/2022,03:14:27,0.001,0.0,0.0,0.0
10/08/2022,03:15:28,0.002,0.0,0.0,0.0
10/08/2022,03:16:27,0.002,0.0,0.0,0.0
10/08/2022,03:17:36,0.002,0.0,0.0,0.0
10/08/2022,03:18:28,0.002,0.0,0.0,0.0
10/08/2022,03:19:28,0.002,0.0,0.0,0.0
10/08/2022,03:20:36,0.001,0.0,0.0,0.0
10/08/2022,03:21:27,0.002,0.0,0.0,0.0
10/08/2022,03:22:28,0.002,0.0,0.0,0.0
10/08/2022,03:23:27,0.002,0.0,0.0,0.0
10/08/2022,03:24:28,0.003,0.0,0.0,0.0
10/08/2022,03:25:28,0.002,0.0,0.0,0.0
10/08/2022,03:26:44,0.001,0.0,0.0,0.0
10/08/2022,03:28:28,0.002,0.0,0.0,0.0
10/08/2022,03:29:27,0.002,0.0,0.0,0.0
10/08/2022,03:30:28,0.001,0.0,0.0,0.0
10/08/2022,03:31:44,0.002,0.0,0.0,0.0
10/08/2022,03:33:28,0.002,0.0,0.0,0.0
10/08/2022,03:34:28,0.002,0.0,0.0,0.0
10/08/2022,03:35:28,0.002,0.0,0.0,0.0
10/08/2022,03:36:27,0.002,0.0,0.0,0.0
10/08/2022,03:37:21,0.002,0.0,0.0,0.0
10/08/2022,03:38:29,0.002,0.0,0.0,0.0
10/08/2022,03:39:27,0.002,0.0,0.0,0.0
10/08/2022,03:40:36,0.002,0.0,0.0,0.0
10/08/2022,03:41:28,0.002,0.0,0.0,0.0
10/08/2022,03:42:28,0.003,0.0,0.0,0.0
10/08/2022,03:43:36,0.001,0.0,0.0,0.0
10/08/2022,03:44:27,0.002,0.0,0.0,0.0
10/08/2022,03:45:29,0.002,0.0,0.0,0.0
10/08/2022,03:46:35,0.002,0.0,0.0,0.0
10/08/2022,03:47:28,0.002,0.0,0.0,0.0
10/08/2022,03:48:27,0.002,0.0,0.0,0.0
10/08/2022,03:49:36,0.002,0.0,0.0,0.0
10/08/2022,03:50:28,0.001,0.0,0.0,0.0
10/08/2022,03:51:36,0.002,0.0,0.0,0.0
10/08/2022,03:52:28,0.002,0.0,0.0,0.0
10/08/2022,03:53:28,0.001,0.0,0.0,0.0
10/08/2022,03:54:28,0.001,0.0,0.0,0.0
10/08/2022,03:55:27,0.002,0.0,0.0,0.0
10/08/2022,03:56:31,0.002,0.0,0.0,0.0
10/08/2022,03:57:28,0.001,0.0,0.0,0.0
10/08/2022,03:58:28,0.002,0.0,0.0,0.0
10/08/2022,03:59:27,0.001,0.0,0.0,0.0
10/08/2022,04:00:28,0.002,0.0,0.0,0.0
10/08/2022,04:01:28,0.002,0.0,0.0,0.0
10/08/2022,04:02:28,0.002,0.0,0.0,0.0
10/08/2022,04:03:41,0.002,0.0,0.0,0.0
10/08/2022,04:05:28,0.002,0.0,0.0,0.0
10/08/2022,04:06:28,0.001,0.0,0.0,0.0
10/08/2022,04:07:28,0.002,0.0,0.0,0.0
10/08/2022,04:08:27,0.003,0.0,0.0,0.0
10/08/2022,04:09:36,0.002,0.0,0.0,0.0
10/08/2022,04:10:26,0.002,0.0,0.0,0.0
10/08/2022,04:11:28,0.002,0.0,0.0,0.0
10/08/2022,04:12:36,0.002,0.0,0.0,0.0
10/08/2022,04:13:28,0.002,0.0,0.0,0.0
10/08/2022,04:14:28,0.002,0.0,0.0,0.0
10/08/2022,04:15:36,0.002,0.0,0.0,0.0
10/08/2022,04:16:28,0.003,0.0,0.0,0.0
10/08/2022,04:17:28,0.002,0.0,0.0,0.0
10/08/2022,04:18:28,0.001,0.0,0.0,0.0
10/08/2022,04:19:28,0.003,0.0,0.0,0.0
10/08/2022,04:20:36,0.001,0.0,0.0,0.0
10/08/2022,04:21:28,0.002,0.0,0.0,0.0
10/08/2022,04:22:28,0.002,0.0,0.0,0.0
10/08/2022,04:23:36,0.002,0.0,0.0,0.0
10/08/2022,04:24:28,0.002,0.0,0.0,0.0
10/08/2022,04:25:28,0.001,0.0,0.0,0.0
10/08/2022,04:26:28,0.002,0.0,0.0,0.0
10/08/2022,04:27:28,0.003,0.0,0.0,0.0
10/08/2022,04:28:28,0.001,0.0,0.0,0.0
10/08/2022,04:29:28,0.001,0.0,0.0,0.0
10/08/2022,04:30:28,0.002,0.0,0.0,0.0
10/08/2022,04:31:28,0.002,0.0,0.0,0.0
10/08/2022,04:32:27,0.002,0.0,0.0,0.0
10/08/2022,04:33:28,0.003,0.0,0.0,0.0
10/08/2022,04:34:28,0.003,0.0,0.0,0.0
10/08/2022,04:35:28,0.003,0.0,0.0,0.0
10/08/2022,04:36:28,0.003,0.0,0.0,0.0
10/08/2022,04:37:28,0.002,0.0,0.0,0.0
10/08/2022,04:38:36,0.003,0.0,0.0,0.0
10/08/2022,04:39:28,0.003,0.0,0.0,0.0
10/08/2022,04:40:28,0.003,0.0,0.0,0.0
10/08/2022,04:41:28,0.003,0.0,0.0,0.0
10/08/2022,04:42:28,0.003,0.0,0.0,0.0
10/08/2022,04:43:28,0.003,0.0,0.0,0.0
10/08/2022,04:44:35,0.003,0.0,0.0,0.0
10/08/2022,04:45:28,0.002,0.0,0.0,0.0
10/08/2022,04:46:28,0.003,0.0,0.0,0.0
10/08/2022,04:47:27,0.004,0.0,0.0,0.0
10/08/2022,04:48:28,0.004,0.0,0.0,0.0
10/08/2022,04:49:36,0.004,0.0,0.0,0.0
10/08/2022,04:50:28,0.004,0.0,0.0,0.0
10/08/2022,04:51:28,0.004,0.0,0.0,0.0
10/08/2022,04:52:44,0.005,0.0,0.0,0.0
10/08/2022,04:54:30,0.005,0.0,0.0,0.0
10/08/2022,04:55:28,0.005,0.0,0.0,0.0
10/08/2022,04:56:28,0.005,0.0,0.0,0.0
10/08/2022,04:57:28,0.005,0.0,0.0,0.0
10/08/2022,04:58:28,0.006,0.0,0.0,0.0
10/08/2022,04:59:27,0.006,0.0,0.0,0.0
10/08/2022,05:00:28,0.006,0.0,0.0,0.0
10/08/2022,05:01:27,0.006,0.0,0.0,0.0
10/08/2022,05:02:30,0.006,0.0,0.0,0.0
10/08/2022,05:03:28,0.007,0.0,0.0,0.0
10/08/2022,05:04:36,0.007,0.0,0.0,0.0
10/08/2022,05:05:28,0.008,0.0,0.001,0.001
10/08/2022,05:06:28,0.007,0.0,0.001,0.0
10/08/2022,05:07:36,0.008,0.0,0.001,0.0
10/08/2022,05:08:27,0.008,0.0,0.001,0.0
10/08/2022,05:09:27,0.009,0.0,0.001,0.0
10/08/2022,05:10:28,0.009,0.0,0.001,0.0
10/08/2022,05:11:28,0.009,0.0,0.001,0.0
10/08/2022,05:12:28,0.009,0.0,0.002,0.001
10/08/2022,05:13:36,0.011,0.0,0.002,0.0
10/08/2022,05:14:27,0.010,0.0,0.002,0.0
10/08/2022,05:15:36,0.011,0.0,0.002,0.0
10/08/2022,05:16:44,0.012,0.0,0.002,0.0
10/08/2022,05:18:29,0.012,0.0,0.003,0.001
10/08/2022,05:19:28,0.013,0.0,0.003,0.0
10/08/2022,05:20:28,0.013,0.0,0.003,0.0
10/08/2022,05:21:28,0.014,0.0,0.003,0.0
10/08/2022,05:22:28,0.014,0.0,0.004,0.001
10/08/2022,05:23:28,0.016,0.0,0.004,0.0
10/08/2022,05:24:28,0.016,0.0,0.004,0.0
10/08/2022,05:25:28,0.016,0.0,0.004,0.0
10/08/2022,05:26:28,0.016,0.0,0.005,0.001
10/08/2022,05:27:28,0.017,0.0,0.005,0.0
10/08/2022,05:28:28,0.017,0.0,0.005,0.0
10/08/2022,05:29:28,0.018,0.0,0.005,0.0
10/08/2022,05:30:28,0.019,0.0,0.006,0.001
10/08/2022,05:31:28,0.019,0.0,0.006,0.0
10/08/2022,05:32:28,0.019,0.0,0.006,0.0
10/08/2022,05:33:37,0.022,0.0,0.007,0.001
10/08/2022,05:34:27,0.022,0.0,0.007,0.0
10/08/2022,05:35:28,0.022,0.0,0.007,0.0
10/08/2022,05:36:30,0.023,0.0,0.008,0.001
10/08/2022,05:37:27,0.024,0.0,0.008,0.0
10/08/2022,05:38:28,0.025,0.0,0.009,0.001
10/08/2022,05:39:28,0.025,0.0,0.009,0.0
10/08/2022,05:40:28,0.026,0.0,0.009,0.0
10/08/2022,05:41:28,0.027,0.0,0.01,0.001
10/08/2022,05:42:28,0.027,0.0,0.01,0.0
10/08/2022,05:43:28,0.029,0.0,0.011,0.001
10/08/2022,05:44:28,0.029,0.0,0.011,0.0
10/08/2022,05:45:28,0.030,0.0,0.012,0.001
10/08/2022,05:46:28,0.031,0.0,0.012,0.0
10/08/2022,05:47:28,0.033,0.0,0.013,0.001
10/08/2022,05:48:28,0.033,0.0,0.013,0.0
10/08/2022,05:49:28,0.034,0.0,0.014,0.001
10/08/2022,05:50:27,0.035,0.0,0.015,0.001
10/08/2022,05:51:28,0.035,0.0,0.015,0.0
10/08/2022,05:52:28,0.038,0.0,0.016,0.001
10/08/2022,05:53:28,0.038,0.0,0.016,0.0
10/08/2022,05:54:28,0.039,0.0,0.017,0.001
10/08/2022,05:55:28,0.040,0.0,0.018,0.001
10/08/2022,05:56:28,0.042,0.0,0.018,0.0
10/08/2022,05:57:28,0.043,0.0,0.019,0.001
10/08/2022,05:58:28,0.045,0.0,0.02,0.001
10/08/2022,05:59:28,0.045,0.0,0.021,0.001
10/08/2022,06:00:28,0.047,0.0,0.021,0.0
10/08/2022,06:01:28,0.049,0.0,0.022,0.001
10/08/2022,06:02:28,0.050,0.0,0.023,0.001
10/08/2022,06:03:29,0.051,0.0,0.024,0.001
10/08/2022,06:04:28,0.052,0.0,0.025,0.001
10/08/2022,06:05:28,0.053,0.0,0.025,0.0
10/08/2022,06:06:28,0.055,0.0,0.026,0.001
10/08/2022,06:07:29,0.056,0.0,0.027,0.001
10/08/2022,06:08:36,0.058,0.0,0.028,0.001
10/08/2022,06:09:28,0.059,0.0,0.029,0.001
10/08/2022,06:10:28,0.060,0.0,0.03,0.001
10/08/2022,06:11:36,0.062,0.0,0.031,0.001
10/08/2022,06:12:28,0.063,0.0,0.032,0.001
10/08/2022,06:13:28,0.065,0.0,0.033,0.001
10/08/2022,06:14:37,0.068,0.0,0.035,0.002
10/08/2022,06:15:26,0.068,0.0,0.036,0.001
10/08/2022,06:16:28,0.070,0.0,0.037,0.001
10/08/2022,06:17:28,0.071,0.0,0.038,0.001
10/08/2022,06:18:28,0.074,0.0,0.039,0.001
10/08/2022,06:19:28,0.075,0.0,0.04,0.001
10/08/2022,06:20:28,0.076,0.0,0.042,0.002
10/08/2022,06:21:28,0.077,0.0,0.043,0.001
10/08/2022,06:22:28,0.079,0.0,0.044,0.001
10/08/2022,06:23:28,0.081,0.0,0.046,0.002
10/08/2022,06:24:28,0.085,0.0,0.047,0.001
10/08/2022,06:25:28,0.086,0.0,0.048,0.001
10/08/2022,06:26:28,0.088,0.0,0.05,0.002
10/08/2022,06:27:28,0.089,0.0,0.051,0.001
10/08/2022,06:28:28,0.091,0.0,0.053,0.002
10/08/2022,06:29:36,0.094,0.0,0.054,0.001
10/08/2022,06:30:28,0.094,0.0,0.056,0.002
10/08/2022,06:31:28,0.097,0.0,0.057,0.001
10/08/2022,06:32:28,0.100,0.0,0.059,0.002
10/08/2022,06:33:28,0.103,0.0,0.061,0.002
10/08/2022,06:34:28,0.106,0.0,0.063,0.002
10/08/2022,06:35:28,0.109,0.0,0.064,0.001
10/08/2022,06:36:28,0.111,0.0,0.066,0.002
10/08/2022,06:37:28,0.114,0.0,0.068,0.002
10/08/2022,06:38:28,0.116,0.0,0.07,0.002
10/08/2022,06:39:29,0.119,0.0,0.072,0.002
10/08/2022,06:40:36,0.121,0.0,0.074,0.002
10/08/2022,06:41:28,0.124,0.0,0.076,0.002
10/08/2022,06:42:28,0.125,0.0,0.078,0.002
10/08/2022,06:43:28,0.129,0.0,0.08,0.002
10/08/2022,06:44:30,0.131,0.0,0.082,0.002
10/08/2022,06:45:28,0.135,0.0,0.085,0.003
10/08/2022,06:46:28,0.136,0.0,0.087,0.002
10/08/2022,06:47:28,0.139,0.0,0.089,0.002
10/08/2022,06:48:28,0.142,0.0,0.091,0.002
10/08/2022,06:49:28,0.145,0.0,0.094,0.003
10/08/2022,06:50:28,0.148,0.0,0.096,0.002
10/08/2022,06:51:28,0.151,0.0,0.099,0.003
10/08/2022,06:52:36,0.154,0.0,0.102,0.003
10/08/2022,06:53:28,0.157,0.0,0.104,0.002
10/08/2022,06:54:28,0.160,0.0,0.107,0.003
10/08/2022,06:55:37,0.165,0.0,0.11,0.003
10/08/2022,06:56:27,0.167,0.0,0.112,0.002
10/08/2022,06:57:28,0.170,0.0,0.115,0.003
10/08/2022,06:58:28,0.174,0.0,0.118,0.003
10/08/2022,06:59:28,0.177,0.0,0.121,0.003
10/08/2022,07:00:28,0.179,0.0,0.124,0.003
10/08/2022,07:01:28,0.183,0.0,0.127,0.003
10/08/2022,07:02:28,0.188,0.0,0.13,0.003
10/08/2022,07:03:28,0.192,0.0,0.133,0.003
10/08/2022,07:04:28,0.196,0.0,0.136,0.003
10/08/2022,07:05:28,0.200,0.0,0.139,0.003
10/08/2022,07:06:28,0.204,0.0,0.143,0.004
10/08/2022,07:07:28,0.209,0.0,0.146,0.003
10/08/2022,07:08:28,0.213,0.0,0.15,0.004
10/08/2022,07:09:28,0.218,1.0,0.153,0.003
10/08/2022,07:10:28,0.222,1.0,0.157,0.004
10/08/2022,07:11:28,0.227,1.0,0.161,0.004
10/08/2022,07:12:28,0.230,1.0,0.165,0.004
10/08/2022,07:13:28,0.235,1.0,0.168,0.003
10/08/2022,07:14:28,0.239,1.0,0.172,0.004
10/08/2022,07:15:28,0.243,1.0,0.176,0.004
10/08/2022,07:16:37,0.247,1.0,0.181,0.005
10/08/2022,07:17:28,0.251,1.0,0.185,0.004
10/08/2022,07:18:28,0.256,1.0,0.189,0.004
10/08/2022,07:19:28,0.260,1.0,0.193,0.004
10/08/2022,07:20:28,0.265,1.0,0.197,0.004
10/08/2022,07:21:28,0.270,1.0,0.202,0.005
10/08/2022,07:22:28,0.246,1.0,0.206,0.004
10/08/2022,07:23:28,0.276,1.0,0.21,0.004
10/08/2022,07:24:28,0.279,1.0,0.215,0.005
10/08/2022,07:25:28,0.286,1.0,0.22,0.005
10/08/2022,07:26:28,0.289,1.0,0.225,0.005
10/08/2022,07:27:28,0.293,1.0,0.229,0.004
10/08/2022,07:28:28,0.299,1.0,0.234,0.005
10/08/2022,07:29:28,0.304,1.0,0.239,0.005
10/08/2022,07:30:28,0.310,1.0,0.244,0.005
10/08/2022,07:31:28,0.314,1.0,0.25,0.006
10/08/2022,07:32:28,0.310,1.0,0.255,0.005
10/08/2022,07:33:44,0.319,1.0,0.261,0.006
10/08/2022,07:35:29,0.328,1.0,0.271,0.01
10/08/2022,07:36:37,0.336,1.0,0.277,0.006
10/08/2022,07:37:28,0.342,1.0,0.282,0.005
10/08/2022,07:38:28,0.348,1.0,0.288,0.006
10/08/2022,07:39:36,0.353,1.0,0.294,0.006
10/08/2022,07:40:28,0.358,1.0,0.3,0.006
10/08/2022,07:41:28,0.363,1.0,0.306,0.006
10/08/2022,07:42:28,0.370,1.0,0.312,0.006
10/08/2022,07:43:28,0.375,1.0,0.318,0.006
10/08/2022,07:44:28,0.381,1.0,0.324,0.006
10/08/2022,07:45:28,0.387,1.0,0.331,0.007
10/08/2022,07:46:28,0.393,1.0,0.337,0.006
10/08/2022,07:47:28,0.399,1.0,0.344,0.007
10/08/2022,07:48:29,0.405,1.0,0.35,0.006
10/08/2022,07:49:28,0.410,1.0,0.357,0.007
10/08/2022,07:50:28,0.416,1.0,0.364,0.007
10/08/2022,07:51:29,0.422,1.0,0.371,0.007
10/08/2022,07:52:28,0.428,1.0,0.378,0.007
10/08/2022,07:53:28,0.432,1.0,0.385,0.007
10/08/2022,07:54:28,0.440,1.0,0.393,0.008
10/08/2022,07:55:28,0.445,1.0,0.4,0.007
10/08/2022,07:56:28,0.450,1.0,0.407,0.007
10/08/2022,07:57:36,0.458,1.0,0.416,0.009
10/08/2022,07:58:28,0.462,1.0,0.423,0.007
10/08/2022,07:59:28,0.468,1.0,0.43,0.007
10/08/2022,08:00:28,0.474,1.0,0.438,0.008
10/08/2022,08:01:28,0.478,1.0,0.446,0.008
10/08/2022,08:02:28,0.488,1.0,0.454,0.008
10/08/2022,08:03:30,0.473,1.0,0.463,0.009
10/08/2022,08:04:28,0.491,1.0,0.47,0.007
10/08/2022,08:05:29,0.504,1.0,0.479,0.009
10/08/2022,08:06:28,0.511,1.0,0.487,0.008
10/08/2022,08:07:28,0.520,1.0,0.496,0.009
10/08/2022,08:08:30,0.526,1.0,0.505,0.009
10/08/2022,08:09:28,0.531,1.0,0.513,0.008
10/08/2022,08:10:28,0.541,1.0,0.522,0.009
10/08/2022,08:11:28,0.546,1.0,0.531,0.009
10/08/2022,08:12:28,0.555,1.0,0.54,0.009
10/08/2022,08:13:29,0.561,1.0,0.55,0.01
10/08/2022,08:14:28,0.564,1.0,0.559,0.009
10/08/2022,08:15:28,0.569,1.0,0.569,0.01
10/08/2022,08:16:28,0.577,1.0,0.578,0.009
10/08/2022,08:17:29,0.586,1.0,0.588,0.01
10/08/2022,08:18:28,0.592,1.0,0.598,0.01
10/08/2022,08:19:28,0.600,1.0,0.608,0.01
10/08/2022,08:20:28,0.607,1.0,0.618,0.01
10/08/2022,08:21:28,0.614,1.0,0.628,0.01
10/08/2022,08:22:28,0.625,1.0,0.638,0.01
10/08/2022,08:23:36,0.633,1.0,0.65,0.012
10/08/2022,08:24:28,0.640,1.0,0.659,0.009
10/08/2022,08:25:28,0.645,1.0,0.67,0.011
10/08/2022,08:26:28,0.655,2.0,0.681,0.011
10/08/2022,08:27:28,0.660,2.0,0.692,0.011
10/08/2022,08:28:28,0.670,2.0,0.703,0.011
10/08/2022,08:29:28,0.675,2.0,0.714,0.011
10/08/2022,08:30:28,0.681,2.0,0.725,0.011
10/08/2022,08:31:28,0.691,2.0,0.737,0.012
10/08/2022,08:32:28,0.699,2.0,0.748,0.011
10/08/2022,08:33:29,0.708,2.0,0.76,0.012
10/08/2022,08:34:28,0.715,2.0,0.772,0.012
10/08/2022,08:35:28,0.725,2.0,0.784,0.012
10/08/2022,08:36:28,0.735,2.0,0.796,0.012
10/08/2022,08:37:28,0.740,2.0,0.808,0.012
10/08/2022,08:38:29,0.749,2.0,0.821,0.013
10/08/2022,08:39:28,0.757,2.0,0.833,0.012
10/08/2022,08:40:28,0.767,2.0,0.846,0.013
10/08/2022,08:41:29,0.775,2.0,0.859,0.013
10/08/2022,08:42:28,0.785,2.0,0.872,0.013
10/08/2022,08:43:28,0.792,2.0,0.885,0.013
10/08/2022,08:44:20,0.799,2.0,0.897,0.012
10/08/2022,08:45:29,0.810,2.0,0.912,0.015
10/08/2022,08:46:28,0.819,2.0,0.925,0.013
10/08/2022,08:47:28,0.828,2.0,0.939,0.014
10/08/2022,08:48:28,0.826,2.0,0.953,0.014
10/08/2022,08:49:36,0.833,2.0,0.968,0.015
10/08/2022,08:50:31,0.855,2.0,0.981,0.013
10/08/2022,08:51:29,0.864,2.0,0.995,0.014
10/08/2022,08:52:28,0.872,2.0,1.009,0.014
10/08/2022,08:53:28,0.883,2.0,1.024,0.015
10/08/2022,08:54:28,0.889,2.0,1.039,0.015
10/08/2022,08:55:28,0.896,2.0,1.054,0.015
10/08/2022,08:56:28,0.901,2.0,1.069,0.015
10/08/2022,08:57:28,0.910,2.0,1.084,0.015
10/08/2022,08:58:29,0.921,2.0,1.099,0.015
10/08/2022,08:59:29,0.930,2.0,1.114,0.015
10/08/2022,09:00:29,0.938,2.0,1.13,0.016
10/08/2022,09:01:28,0.949,2.0,1.146,0.016
10/08/2022,09:02:28,0.951,2.0,1.162,0.016
10/08/2022,09:03:28,0.957,2.0,1.177,0.015
10/08/2022,09:04:37,0.974,2.0,1.196,0.019
10/08/2022,09:05:28,0.986,2.0,1.21,0.014
10/08/2022,09:06:29,0.994,2.0,1.226,0.016
10/08/2022,09:07:28,1.002,2.0,1.243,0.017
10/08/2022,09:08:28,1.012,2.0,1.26,0.017
10/08/2022,09:09:28,1.019,2.0,1.277,0.017
10/08/2022,09:10:28,1.028,2.0,1.294,0.017
10/08/2022,09:11:28,1.038,2.0,1.311,0.017
10/08/2022,09:12:35,1.046,2.0,1.33,0.019
10/08/2022,09:13:28,1.054,2.0,1.346,0.016
10/08/2022,09:14:29,1.063,2.0,1.363,0.017
10/08/2022,09:15:28,1.071,2.0,1.381,0.018
10/08/2022,09:16:28,1.077,2.0,1.399,0.018
10/08/2022,09:17:28,1.090,3.0,1.417,0.018
10/08/2022,09:18:28,1.092,3.0,1.435,0.018
10/08/2022,09:19:28,1.105,3.0,1.454,0.019
10/08/2022,09:20:28,1.114,3.0,1.472,0.018
10/08/2022,09:21:29,1.116,3.0,1.491,0.019
10/08/2022,09:22:29,1.129,3.0,1.509,0.018
10/08/2022,09:23:28,1.139,3.0,1.528,0.019
10/08/2022,09:24:28,1.143,3.0,1.547,0.019
10/08/2022,09:25:28,1.155,3.0,1.567,0.02
10/08/2022,09:26:28,1.164,3.0,1.586,0.019
10/08/2022,09:27:37,1.178,3.0,1.608,0.022
10/08/2022,09:28:28,1.186,3.0,1.625,0.017
10/08/2022,09:29:28,1.186,3.0,1.645,0.02
10/08/2022,09:30:28,1.195,3.0,1.665,0.02
10/08/2022,09:31:28,1.197,3.0,1.685,0.02
10/08/2022,09:32:36,1.209,3.0,1.707,0.022
10/08/2022,09:33:28,1.224,3.0,1.725,0.018
10/08/2022,09:34:28,1.230,3.0,1.745,0.02
10/08/2022,09:35:37,1.237,3.0,1.769,0.024
10/08/2022,09:36:28,1.242,3.0,1.787,0.018
10/08/2022,09:37:29,1.255,3.0,1.807,0.02
10/08/2022,09:38:37,1.263,3.0,1.831,0.024
10/08/2022,09:39:29,1.272,3.0,1.85,0.019
10/08/2022,09:40:28,1.279,3.0,1.871,0.021
10/08/2022,09:41:28,1.288,3.0,1.892,0.021
10/08/2022,09:42:28,1.298,3.0,1.914,0.022
10/08/2022,09:43:28,1.308,3.0,1.935,0.021
10/08/2022,09:44:28,1.315,3.0,1.957,0.022
10/08/2022,09:45:28,1.324,3.0,1.979,0.022
10/08/2022,09:46:28,1.333,3.0,2.002,0.023
10/08/2022,09:47:29,1.339,3.0,2.024,0.022
10/08/2022,09:48:28,1.348,3.0,2.046,0.022
10/08/2022,09:49:28,1.358,3.0,2.069,0.023
10/08/2022,09:50:28,1.367,3.0,2.091,0.022
10/08/2022,09:51:28,1.378,3.0,2.114,0.023
10/08/2022,09:52:28,1.385,3.0,2.137,0.023
10/08/2022,09:53:28,1.392,3.0,2.161,0.024
10/08/2022,09:54:37,1.402,3.0,2.188,0.027
10/08/2022,09:55:27,1.411,3.0,2.206,0.018
10/08/2022,09:56:28,1.419,3.0,2.231,0.025
10/08/2022,09:57:29,1.424,3.0,2.255,0.024
10/08/2022,09:58:30,1.434,3.0,2.279,0.024
10/08/2022,09:59:29,1.442,3.0,2.302,0.023
10/08/2022,10:00:28,1.445,3.0,2.326,0.024
10/08/2022,10:01:36,1.452,3.0,2.353,0.027
10/08/2022,10:02:28,1.463,3.0,2.375,0.022
10/08/2022,10:03:28,1.472,3.0,2.399,0.024
10/08/2022,10:04:37,1.480,3.0,2.427,0.028
10/08/2022,10:05:28,1.491,3.0,2.448,0.021
10/08/2022,10:06:28,1.501,3.0,2.473,0.025
10/08/2022,10:07:29,1.502,3.0,2.498,0.025
10/08/2022,10:08:29,1.515,3.0,2.523,0.025
10/08/2022,10:09:28,1.525,4.0,2.549,0.026
10/08/2022,10:10:28,1.535,4.0,2.574,0.025
10/08/2022,10:11:28,1.547,4.0,2.6,0.026
10/08/2022,10:12:29,1.554,4.0,2.626,0.026
10/08/2022,10:13:28,1.562,4.0,2.652,0.026
10/08/2022,10:14:29,1.570,4.0,2.678,0.026
10/08/2022,10:15:38,1.584,4.0,2.709,0.031